Skip Page Navigation
NASA JPL Caltech
NASA Logo - Jet Propulsion Laboratory + View the NASA Portal
+ Center for Near-Earth Object Studies
JPL Home Earth Solar System Stars & Galaxies Technology
JPL Solar System Dynamics
BODIES ORBITS EPHEMERIDES TOOLS PHYSICAL DATA DISCOVERY FAQ SITE MAP
JPL Small-Body Database Browser
Search: [ help ]  
183757 (2004 AC6)
Classification: Main-belt Asteroid          SPK-ID: 2183757
Ephemeris | Orbit Diagram | Orbital Elements | Mission Design | Physical Parameters | Discovery Circumstances ]

[ show orbit diagram ]
Orbital Elements at Epoch 2459000.5 (2020-May-31.0) TDB
Reference: JPL 16 (heliocentric ecliptic J2000)
 Element Value Uncertainty (1-sigma)   Units 
e .1635600686723432 6.1716e-08  
a 2.351463313192034 1.4815e-08 au
q 1.96685781220585 1.4345e-07 au
i 7.572535709573348 8.6057e-06 deg
node 325.6178176746107 3.724e-05 deg
peri 237.5738694593419 4.4474e-05 deg
M 133.7378294867767 2.2572e-05 deg
tp 2458511.219950464197
(2019-Jan-27.71995046)
8.1991e-05 TDB
period 1317.06053933158
3.61
1.2447e-05
3.408e-08
d
yr
n .2733359547638587 2.5831e-09 deg/d
Q 2.736068814178219 1.7238e-08 au
  Orbit Determination Parameters
   # obs. used (total)      465  
   data-arc span      5660 days (15.50 yr)  
   first obs. used      2003-12-28  
   last obs. used      2019-06-27  
   planetary ephem.      DE431  
   SB-pert. ephem.      SB431-N16  
   condition code      0  
   norm. resid. RMS      .64282  
   source      ORB  
   producer      Otto Matic  
   solution date      2020-Jan-29 22:29:09  

Additional Information
 Earth MOID = .976559 au 
 Jupiter MOID = 2.26963 au 
 T_jup = 3.528 
[ show covariance matrix ]

Ephemeris | Orbit Diagram | Orbital Elements | Mission Design | Physical Parameters | Discovery Circumstances ]

Physical Parameter Table
Parameter Symbol Value Units Sigma Reference Notes
absolute magnitude H 15.9   n/a MPO433202  

183757 (2004 AC6)          Discovered 2004-Jan-13 by NEAT at Palomar
Reference: 20080420/Numbers.arcLast Updated: 2008-04-23
Ephemeris | Orbit Diagram | Orbital Elements | Mission Design | Physical Parameters | Discovery Circumstances ]
ABOUT SSD CREDITS/AWARDS PRIVACY/COPYRIGHT GLOSSARY LINKS
FirstGov 2020-Sep-28 03:49 UT
(server date/time)  
NASA Home Page
Site Manager:   Ryan S. Park
Webmaster  Alan B. Chamberlin